User: anonymous   Login
Location: Newark
(26.8229°N, 81.7649°W)
Time: 15:40:40
(UTC+00:00)
Language:

PCSat - Orbit

View from above orbital plane
View from above orbital plane
View from above satellite
View from above satellite

Ground track
Ground track

The orbit data is extracted from the following two-line orbital elements,

1 26931U 01043C   20095.13165979 -.00000018  00000-0  24922-4 0  9999
2 26931  67.0523 334.1919 0005947 265.6243  94.4179 14.30572180966511
Epoch (UTC): 04 April 2020 03:09:35
Eccentricity: 0.0005947
inclination: 67.0523°
perigee height: 785 km
apogee height: 794 km
right ascension of ascending node: 334.1919°
argument of perigee: 265.6243°
revolutions per day: 14.30572180
mean anomaly at epoch: 94.4179°
orbit number at epoch: 96651

The dashed part of the orbit path shows where the satellite is in the earth's shadow,  

DLR